Volver al catálogo

TIANQI 40

ActivoComunicacionesLEO
NORAD 67479·PAYLOAD·🇨🇳 China

Lanzado Jan 15, 2026 desde Yellow Sea Launch Area

Loading…

Próximos Pases (próximas 24 horas)

TLE

ActualizadoSource: Space-Track

Época: Sep 14, 2026, 10:48 UTC

1 67479U 26010D   26257.45011302 -.00000010  00000-0  81426-4 0  9997
2 67479  44.9835  44.7791 0009464  44.0496 316.1089 13.99171596 33892

Sigue TIANQI 40 en tiempo real con AllMySat

Download on the App Store